Terug naar catalogus

STARLINK-32906

ActiefCommunicatieVLEO
NORAD 63080·PAYLOAD·🇺🇸 United States

Gelanceerd Feb 23, 2025 vanaf Vandenberg Space Force Base

Loading…

Volgende Passages (komende 24 uur)

TLE

VersSource: CelesTrak SupGP

Epoch: Sep 14, 2026, 21:20 UTC

1 63080C 25037D   26257.88937500  .00050804  00000+0  17671-2 0  2573
2 63080  70.0007 235.8307 0002912 263.8139  37.2387 15.29559074    15

Volg STARLINK-32906 in realtime met AllMySat

Download on the App Store